FW4331 Weather Reports


time (UTC)temp
F
wind
direction
speed
knots
gust
knots
rain 1hr
in
rain 24hr
in
rain mn
in
humidity
%
barometer
mb
20260504214524 76 159 5.2 12.2 0.00 0.00 0.00 24 1008.2
20260504213020 76 246 5.2 13.9 0.00 0.00 0.00 24 1008.0
20260504211517 75 228 4.3 13.0 0.00 0.00 0.00 24 1008.1
20260504210016 76 222 7.8 13.0 0.00 0.00 0.00 22 1008.1
20260504204516 77 200 7.0 14.8 0.00 0.00 0.00 21 1008.1
20260504203012 76 217 4.3 10.4 0.00 0.00 0.00 22 1008.0
20260504201509 77 186 4.3 11.3 0.00 0.00 0.00 20 1008.2
20260504200007 76 244 5.2 12.2 0.00 0.00 0.00 21 1008.3
20260504194502 77 266 4.3 10.4 0.00 0.00 0.00 21 1008.6
20260504193113 76 253 5.2 12.2 0.00 0.00 0.00 21 1009.0
20260504191555 77 240 4.3 10.4 0.00 0.00 0.00 20 1009.0
20260504190056 77 255 2.6 8.7 0.00 0.00 0.00 23 1009.3
20260504184546 76 205 2.6 12.2 0.00 0.00 0.00 21 1009.6
20260504183054 75 291 4.3 9.6 0.00 0.00 0.00 22 1009.9
20260504181538 74 165 2.6 15.6 0.00 0.00 0.00 21 1010.1
20260504180054 74 226 4.3 12.2 0.00 0.00 0.00 22 1010.4
20260504174533 74 302 4.3 10.4 0.00 0.00 0.00 23 1010.6
20260504173027 73 192 6.1 11.3 0.00 0.00 0.00 22 1010.9
20260504171524 73 150 3.5 13.0 0.00 0.00 0.00 23 1011.0
20260504081500 46 153 0.0 0.0 0.00 0.00 0.00 57 1014.0
20260504044533 44 297 0.0 0.0 0.00 0.00 0.00 61 1014.4
20260504043030 44 297 0.0 0.0 0.00 0.00 0.00 60 1014.4
20260504041517 44 297 0.0 0.0 0.00 0.00 0.00 57 1014.3
20260504040018 44 297 0.0 0.0 0.00 0.00 0.00 59 1014.2
20260504034511 44 297 0.0 0.0 0.00 0.00 0.00 60 1014.3
20260504033009 45 297 0.0 0.0 0.00 0.00 0.00 60 1014.6
20260504031507 45 297 0.0 0.0 0.00 0.00 0.00 59 1014.3
20260504030005 46 257 0.0 0.0 0.00 0.00 0.00 58 1014.3
20260504024503 46 257 0.0 0.0 0.00 0.00 0.00 56 1014.2
20260504023100 46 257 0.0 0.0 0.00 0.00 0.00 57 1014.1
20260504021601 47 257 0.0 0.0 0.00 0.00 0.00 56 1014.1
20260504020107 48 257 0.0 0.0 0.00 0.00 0.00 52 1014.0
20260504014557 48 257 0.0 0.0 0.00 0.00 0.00 44 1013.7
20260504013155 49 257 0.0 0.0 0.00 0.00 0.00 41 1013.7
20260504011548 50 257 0.0 0.0 0.00 0.00 0.00 40 1013.4
20260504010046 50 257 0.0 0.0 0.00 0.00 0.00 40 1013.3
20260504004546 52 257 0.0 0.0 0.00 0.00 0.00 37 1013.3
20260504003046 54 257 0.0 0.0 0.00 0.00 0.00 32 1013.3
20260504001540 55 256 0.0 0.0 0.00 0.00 0.00 32 1013.3
20260504000045 57 256 0.0 0.0 0.00 0.00 0.00 28 1013.2
20260503234536 58 256 0.0 0.0 0.00 0.00 0.00 24 1012.9
20260503233035 59 287 0.0 0.0 0.00 0.00 0.00 21 1012.9
20260503231533 60 272 0.0 2.6 0.00 0.00 0.00 20 1012.9
20260503230032 61 226 0.0 7.0 0.00 0.00 0.00 19 1012.9
20260503224530 62 249 0.0 2.6 0.00 0.00 0.00 17 1012.7
20260503223026 63 225 0.0 2.6 0.00 0.00 0.00 16 1012.9
20260503221525 64 300 0.9 7.0 0.00 0.00 0.00 16 1012.9
20260503220023 64 249 0.0 4.3 0.00 0.00 0.00 14 1013.1